Wind_Speed
10 14 17 23 25 22 21 21 17 16 16 17 18 19 17 16 17 11 14 17 26 27 28 20 22 23 22 22 24 25 26 27 25 22 21 22 23 22 20 19 18 17 15
11 17 20 21 21 19 18 20 21 18 17 17 19 16 17 16 15 14 10 10 15 19 25 23 21 22 23 21 24 26 29 27 25 21 21 22 23 23 22 19 18 18 19
11 16 21 20 18 18 19 20 21 21 19 17 18 19 17 13 13 11 5 6 13 16 26 32 30 33 26 24 22 23 25 30 32 26 21 22 23 24 23 21 20 20 21
9 16 20 19 18 15 19 19 19 22 21 20 18 17 17 17 14 12 10 11 11 10 9 14 26 19 22 19 23 28 28 23 24 28 29 24 24 25 25 24 21 20 21
8 16 21 24 21 24 28 30 33 32 23 19 20 20 19 17 18 18 16 15 13 14 13 13 8 6 11 20 23 19 21 22 22 24 25 26 26 25 25 27 24 22 21
6 12 18 25 27 30 35 38 41 38 31 28 22 20 19 20 20 19 19 22 21 19 18 18 18 19 18 17 16 15 19 21 21 23 26 27 27 29 25 29 29 25 23
13 16 20 21 25 32 36 38 44 39 32 30 25 22 21 21 21 22 23 20 19 22 25 25 24 23 24 23 22 24 22 22 21 20 21 23 24 26 28 29 28 28 25
15 21 21 22 26 32 37 43 44 37 32 29 27 26 22 21 22 22 22 22 22 20 21 23 25 28 29 28 28 28 26 25 24 25 22 16 17 21 26 29 29 27 25
17 22 25 26 31 34 41 43 38 34 32 31 29 27 25 22 22 22 22 22 22 23 23 23 23 22 25 31 32 32 30 28 28 27 26 23 22 23 24 24 26 29 28
18 26 25 29 34 40 41 35 36 35 34 34 31 29 27 26 24 24 24 23 23 23 23 23 23 22 23 25 27 30 31 32 32 30 29 28 27 27 27 28 28 28 30
22 26 31 35 36 33 34 34 34 33 32 33 34 33 31 30 28 28 29 28 26 24 23 23 25 24 24 24 26 27 28 30 32 33 34 33 32 31 30 29 29 30 30
27 31 31 30 30 32 33 32 32 34 34 33 33 33 33 32 31 31 31 33 33 29 26 26 26 26 28 28 28 29 29 30 31 31 32 32 33 34 34 33 32 32 31
27 27 27 28 30 32 33 34 34 35 37 36 36 34 33 34 33 32 33 34 35 35 32 31 30 30 30 30 31 32 34 33 33 33 32 32 32 32 34 35 36 36 35
29 29 30 31 31 33 34 35 35 36 36 37 36 36 34 32 33 33 32 32 34 35 36 35 35 35 35 34 34 35 35 35 36 37 37 36 35 34 33 34 35 37 38
28 28 29 29 29 30 31 32 33 34 36 36 36 36 35 33 32 33 33 32 32 33 34 36 37 38 38 39 39 37 37 37 38 36 38 39 40 41 39 37 34 36 36
27 26 26 27 28 29 29 30 31 31 33 35 36 37 36 35 34 35 35 34 33 34 34 31 33 36 39 40 41 41 40 39 37 39 40 39 38 38 39 41 40 39 38
24 24 24 26 27 27 27 28 28 28 30 32 33 35 37 38 38 37 37 36 35 35 34 33 33 33 34 35 38 38 37 35 37 38 38 38 37 36 36 37 39 41 43
22 23 24 26 27 28 29 30 30 30 28 29 31 32 34 34 35 36 39 40 37 37 36 34 30 33 30 31 33 37 38 36 38 36 32 31 34 35 33 32 33 34 36
23 24 26 27 28 30 30 31 31 31 31 31 31 33 36 34 34 34 35 37 37 35 33 33 31 30 30 32 33 36 37 38 38 36 32 32 32 31 32 32 31 30 30
24 26 27 28 29 29 30 30 31 31 32 34 36 38 39 38 37 35 34 32 33 32 34 34 32 35 31 32 34 32 29 27 33 40 38 32 34 34 34 33 32 31 31
24 26 27 27 28 28 28 28 29 30 33 38 41 41 40 40 38 36 34 32 30 31 29 32 32 32 30 32 30 21 20 18 21 28 33 34 34 35 35 34 34 33 31
24 25 26 26 26 27 27 27 29 32 37 44 45 42 39 35 32 30 28 30 32 30 28 26 28 28 29 30 27 25 21 21 20 20 25 34 35 35 34 33 32 31 31
23 24 24 24 25 25 25 26 29 35 41 46 46 42 37 35 30 27 28 28 27 27 30 28 24 20 21 21 24 25 27 23 24 29 28 32 32 32 35 33 32 32 31
20 22 23 23 23 24 24 26 28 34 39 42 43 43 36 33 29 25 25 26 27 25 25 30 23 25 20 20 24 26 29 30 33 31 33 36 34 29 35 35 34 32 31
20 22 23 23 23 24 24 25 26 29 34 40 43 42 39 34 32 28 25 23 22 23 24 28 28 25 20 22 21 23 28 28 30 30 30 31 33 32 35 33 34 33 33
20 22 23 23 23 24 24 24 24 28 33 36 39 45 45 39 34 31 29 25 21 18 18 19 19 24 21 19 20 24 24 25 27 32 34 34 32 33 33 36 34 34 35
Wind_Direction
324 330 328 322 322 326 330 333 334 320 310 320 333 343 350 350 353 274 260 269 257 235 235 247 254 250 249 254 259 263 263 265 268 260 263 262 266 268 266 261 263 264 261
329 328 329 330 329 330 336 338 337 337 331 319 317 326 338 348 353 339 268 273 263 240 235 243 255 257 256 259 261 264 260 260 259 264 257 257 261 261 264 260 256 258 256
335 337 340 344 342 346 343 343 346 338 335 333 318 311 315 327 330 339 337 290 274 283 258 254 251 258 261 259 262 264 258 258 255 256 256 254 254 255 256 259 255 256 254
337 339 336 352 352 354 9 9 357 347 336 327 321 314 302 295 296 304 298 287 299 255 270 262 249 249 249 262 262 263 266 263 264 261 250 255 256 252 257 256 255 256 248
346 347 337 328 337 355 357 358 355 351 348 335 320 311 308 303 289 280 277 276 276 275 278 278 304 307 281 258 253 256 259 265 268 265 260 263 258 255 261 257 251 250 253
316 324 326 324 333 328 336 347 345 344 343 343 333 315 301 299 297 293 283 273 271 271 272 270 268 271 271 279 267 252 261 260 269 270 265 264 261 250 258 252 248 250 250
292 311 314 327 332 331 336 335 334 335 336 335 333 324 314 302 296 293 290 284 278 272 266 263 262 261 264 264 260 264 265 265 267 279 279 267 258 247 250 248 250 249 250
300 316 315 310 317 323 325 326 326 327 328 328 326 323 317 308 300 294 290 286 282 276 272 269 266 260 257 259 260 262 264 266 266 265 276 273 269 255 257 252 247 251 251
300 311 313 310 317 317 317 318 320 321 322 321 321 319 316 312 303 297 291 285 281 279 276 275 273 272 263 257 256 257 259 262 262 261 266 268 270 267 269 266 251 253 255
298 306 310 307 309 311 313 315 315 317 318 317 317 315 311 308 304 299 294 288 282 278 279 278 274 271 270 268 263 261 259 258 261 262 260 261 263 263 262 263 261 259 258
297 301 303 304 305 307 309 310 311 312 313 312 312 311 308 304 300 295 291 288 283 279 276 273 275 273 270 267 268 269 266 263 262 262 262 262 262 261 260 260 263 262 262
301 305 309 307 304 306 308 307 306 306 306 306 304 302 301 298 295 291 286 284 283 279 276 274 270 270 270 268 268 267 267 269 268 266 265 264 263 263 262 261 260 260 262
316 312 308 309 310 310 311 310 310 309 308 307 306 305 304 303 299 292 287 283 278 277 274 270 269 269 267 267 265 264 266 265 264 265 266 266 265 263 263 262 262 262 261
321 316 315 314 314 315 313 313 313 311 309 310 309 308 307 304 302 300 296 288 282 277 273 270 267 265 264 264 263 262 264 264 263 262 262 263 264 264 264 265 264 263 262
319 318 316 315 314 314 315 315 316 316 315 313 310 307 305 303 300 298 298 295 293 288 280 274 269 266 262 261 262 261 262 262 264 264 261 262 263 265 265 265 265 261 262
317 317 317 317 319 321 321 319 318 316 314 312 310 309 308 306 304 302 300 298 296 293 289 281 270 266 263 260 259 259 259 261 262 263 265 265 264 264 263 263 262 262 261
323 322 322 323 323 322 321 321 319 318 317 315 312 309 305 304 303 300 298 298 297 294 291 289 281 274 265 259 258 256 257 258 259 259 261 262 263 264 263 262 262 261 263
323 324 326 326 325 326 326 325 324 322 320 317 317 316 312 310 305 299 297 295 293 291 290 289 275 278 273 268 262 258 255 254 254 255 258 261 260 261 261 262 264 266 268
326 326 327 328 328 327 327 326 325 325 325 324 320 318 315 315 308 300 299 292 290 286 281 281 284 278 274 271 270 269 265 259 251 251 247 253 254 256 258 260 262 264 266
327 328 329 329 329 329 329 328 327 327 327 326 325 321 318 314 308 301 295 296 292 288 281 280 279 282 277 276 277 279 278 277 261 252 250 252 252 253 255 257 260 264 266
329 330 330 331 331 331 330 330 331 332 334 334 333 329 323 316 310 300 293 292 292 299 281 276 290 278 276 270 270 266 264 262 271 262 252 247 251 255 258 258 260 260 262
331 332 332 333 335 336 336 335 338 341 342 344 343 338 332 323 314 305 297 291 287 288 293 293 286 285 278 271 263 248 247 257 258 262 256 252 252 254 256 257 256 256 258
335 335 336 338 340 341 340 342 345 348 349 348 348 344 338 338 330 319 312 299 299 286 287 293 292 295 288 275 257 249 250 255 250 253 256 258 254 256 256 254 252 253 253
341 343 343 344 345 346 346 348 352 356 357 355 352 352 347 346 339 326 321 317 304 296 287 283 291 294 278 278 265 253 254 252 255 258 258 261 258 255 264 257 257 256 252
351 351 350 349 351 352 354 354 357 360 1 6 5 360 356 355 357 350 338 329 320 326 297 285 283 288 294 277 265 264 252 258 266 268 264 268 255 253 254 262 260 253 254
356 356 354 354 355 358 359 358 356 358 359 358 2 5 8 4 359 1 360 351 345 341 322 304 291 286 285 271 273 272 276 271 270 266 267 264 261 258 260 258 260 253 251
Height
3186 3185 3183 3181 3178 3174 3171 3167 3165 3162 3159 3155 3152 3149 3146 3142 3140 3138 3137 3136 3136 3139 3144 3146 3149 3149 3150 3151 3151 3152 3153 3154 3155 3158 3158 3158 3157 3157 3158 3158 3158 3158 3157
3183 3182 3180 3176 3173 3170 3167 3164 3161 3157 3154 3151 3148 3146 3144 3142 3139 3136 3134 3134 3134 3135 3138 3140 3142 3144 3145 3144 3144 3145 3146 3147 3149 3150 3151 3152 3152 3152 3152 3153 3153 3154 3154
3180 3179 3177 3174 3170 3167 3164 3161 3159 3155 3151 3148 3145 3143 3142 3141 3138 3137 3134 3133 3132 3132 3133 3134 3135 3137 3139 3137 3138 3139 3139 3140 3141 3143 3144 3145 3145 3145 3146 3147 3148 3149 3150
3177 3176 3175 3173 3169 3165 3163 3160 3157 3154 3149 3146 3143 3140 3139 3138 3137 3135 3134 3132 3131 3130 3129 3129 3131 3130 3131 3131 3132 3132 3134 3133 3133 3134 3136 3138 3138 3139 3139 3140 3141 3142 3143
3174 3173 3171 3169 3166 3163 3159 3155 3152 3149 3146 3143 3140 3137 3135 3133 3132 3131 3130 3129 3128 3127 3126 3125 3124 3125 3125 3125 3126 3127 3127 3126 3128 3128 3129 3130 3132 3132 3133 3134 3135 3135 3137
3169 3168 3167 3165 3162 3158 3155 3152 3148 3145 3141 3138 3135 3133 3131 3128 3125 3125 3123 3124 3123 3123 3122 3122 3121 3121 3121 3121 3120 3120 3120 3121 3122 3122 3122 3122 3123 3124 3125 3126 3128 3129 3130
3167 3165 3164 3160 3157 3155 3150 3147 3144 3141 3137 3133 3131 3128 3126 3123 3121 3119 3118 3117 3117 3116 3116 3116 3116 3116 3116 3116 3115 3115 3116 3116 3116 3115 3115 3115 3115 3115 3117 3119 3121 3122 3124
3163 3161 3158 3156 3153 3150 3146 3143 3139 3135 3131 3128 3126 3122 3120 3118 3115 3113 3112 3111 3111 3110 3108 3107 3107 3108 3109 3109 3109 3109 3109 3110 3110 3109 3109 3107 3108 3109 3111 3111 3113 3115 3117
3160 3158 3154 3151 3148 3145 3141 3137 3133 3130 3127 3124 3121 3118 3115 3112 3110 3107 3106 3105 3104 3103 3102 3102 3101 3101 3101 3100 3101 3101 3102 3102 3102 3103 3103 3103 3103 3103 3104 3104 3105 3106 3109
3156 3153 3149 3146 3142 3138 3134 3130 3127 3123 3119 3116 3113 3111 3108 3106 3104 3102 3099 3099 3098 3096 3095 3094 3094 3094 3093 3092 3092 3092 3094 3094 3093 3095 3096 3096 3097 3098 3098 3098 3099 3100 3101
3151 3147 3143 3139 3135 3132 3129 3124 3120 3117 3113 3111 3106 3104 3102 3098 3096 3094 3091 3090 3090 3089 3088 3087 3085 3085 3086 3085 3085 3085 3085 3085 3085 3086 3087 3088 3089 3090 3090 3091 3091 3092 3094
3145 3140 3136 3133 3129 3125 3122 3118 3114 3110 3107 3104 3101 3098 3095 3090 3088 3085 3083 3081 3080 3080 3080 3079 3077 3077 3077 3077 3077 3077 3076 3076 3076 3076 3077 3078 3079 3080 3080 3082 3083 3084 3085
3137 3134 3130 3126 3122 3118 3114 3110 3106 3101 3097 3094 3090 3088 3085 3080 3077 3074 3072 3071 3070 3069 3069 3069 3068 3068 3067 3068 3068 3067 3067 3067 3067 3067 3068 3069 3070 3070 3071 3072 3072 3074 3075
3130 3126 3122 3118 3114 3109 3105 3100 3096 3092 3088 3083 3079 3077 3074 3072 3068 3064 3062 3061 3059 3057 3056 3057 3056 3057 3057 3057 3057 3057 3057 3057 3057 3058 3059 3060 3060 3061 3062 3062 3063 3063 3064
3124 3119 3115 3111 3108 3104 3100 3095 3090 3084 3079 3075 3071 3068 3065 3063 3060 3056 3053 3051 3049 3047 3045 3044 3044 3044 3045 3045 3045 3046 3046 3046 3046 3049 3049 3050 3050 3050 3052 3052 3053 3054 3054
3119 3115 3111 3107 3102 3098 3094 3090 3085 3080 3075 3070 3065 3060 3056 3052 3050 3047 3044 3042 3039 3035 3033 3033 3032 3031 3031 3032 3032 3033 3034 3035 3036 3036 3036 3038 3039 3040 3041 3041 3043 3044 3044
3112 3109 3105 3101 3097 3093 3089 3086 3082 3077 3071 3064 3058 3052 3047 3044 3041 3038 3034 3031 3027 3025 3022 3021 3019 3018 3018 3018 3019 3021 3022 3023 3024 3024 3025 3026 3027 3028 3029 3030 3031 3032 3033
3108 3105 3100 3096 3092 3087 3083 3079 3075 3070 3065 3059 3053 3046 3040 3036 3032 3027 3022 3019 3016 3013 3010 3008 3008 3006 3006 3006 3007 3008 3008 3009 3010 3012 3014 3016 3017 3017 3018 3019 3020 3020 3021
3102 3099 3095 3090 3086 3081 3077 3072 3067 3062 3056 3052 3047 3041 3034 3029 3024 3018 3012 3007 3004 3001 3000 2997 2996 2995 2995 2995 2996 2996 2995 2996 2999 3000 3003 3005 3007 3008 3007 3009 3010 3011 3011
3097 3093 3089 3085 3080 3075 3071 3066 3061 3055 3050 3045 3039 3032 3026 3019 3013 3008 3003 2997 2994 2991 2988 2986 2985 2983 2983 2983 2984 2984 2983 2983 2985 2986 2989 2993 2995 2996 2997 2999 3000 3001 3001
3092 3088 3084 3079 3075 3070 3066 3061 3055 3050 3044 3038 3030 3022 3013 3005 2999 2994 2990 2987 2983 2980 2977 2975 2974 2972 2971 2972 2972 2972 2972 2973 2975 2976 2977 2981 2983 2984 2986 2988 2989 2991 2992
3087 3083 3079 3075 3071 3066 3061 3055 3050 3044 3037 3029 3020 3012 3003 2996 2989 2983 2979 2976 2973 2970 2967 2965 2963 2962 2960 2960 2961 2961 2963 2964 2965 2966 2968 2969 2971 2972 2973 2975 2978 2980 2981
3083 3080 3076 3072 3067 3063 3057 3052 3046 3040 3032 3024 3015 3005 2997 2989 2982 2976 2972 2968 2964 2961 2958 2955 2954 2953 2952 2951 2951 2952 2953 2954 2956 2957 2957 2959 2960 2961 2962 2964 2966 2968 2970
3081 3078 3073 3069 3064 3059 3054 3049 3044 3038 3030 3022 3013 3003 2993 2985 2977 2971 2965 2960 2956 2952 2949 2948 2946 2945 2945 2944 2944 2944 2945 2946 2946 2946 2947 2948 2949 2951 2951 2953 2955 2957 2959
3079 3075 3071 3067 3062 3057 3052 3047 3042 3036 3030 3022 3013 3003 2993 2984 2975 2967 2960 2954 2949 2944 2941 2940 2939 2938 2937 2936 2936 2936 2936 2936 2936 2936 2936 2936 2937 2939 2940 2941 2944 2946 2948
3077 3073 3070 3066 3061 3055 3050 3045 3041 3035 3028 3021 3013 3005 2995 2985 2976 2967 2959 2951 2945 2940 2936 2933 2932 2930 2929 2928 2928 2928 2927 2927 2926 2925 2924 2924 2925 2927 2929 2930 2932 2933 2936